This is the latest recevied weather packets stored in our database for station/object VE6EN. If no packets are shown the sender has not sent any weather packets the latest 10 day(s).
| Time | Temp. | Humidity | Pressure | Rain* | Wind** | Luminosity | Snow |
|---|---|---|---|---|---|---|---|
| 1788085199 | 8.89° C | 75% | 1007.6 hPa | 0 mm | - | - | - |
| 1788084605 | 8.89° C | 76% | 1007.6 hPa | 0 mm | - | - | - |
| 1788084008 | 8.89° C | 76% | 1007.5 hPa | 0 mm | - | - | - |
| 1788083405 | 8.89° C | 76% | 1007.4 hPa | 0 mm | - | - | - |
| 1788082804 | 8.33° C | 77% | 1007.5 hPa | 0 mm | - | - | - |
| 1788082201 | 8.33° C | 79% | 1007.5 hPa | 0 mm | - | - | - |
| 1788081606 | 8.33° C | 80% | 1007.8 hPa | 0 mm | - | - | - |
| 1788081006 | 8.89° C | 78% | 1007.6 hPa | 0 mm | - | - | - |
| 1788080399 | 8.89° C | 78% | 1007.6 hPa | 0 mm | - | - | - |
| 1788079801 | 8.89° C | 77% | 1007.6 hPa | 0 mm | - | - | - |
| 1788079203 | 9.44° C | 78% | 1007.6 hPa | 0 mm | - | - | - |
| 1788078604 | 9.44° C | 77% | 1007.6 hPa | 0 mm | - | - | - |
| 1788077999 | 9.44° C | 76% | 1007.6 hPa | 0 mm | - | - | - |
| 1788077399 | 10° C | 74% | 1007.6 hPa | 0 mm | - | - | - |
| 1788076802 | 10° C | 73% | 1007.6 hPa | 0 mm | - | - | - |
| 1788076212 | 10.56° C | 72% | 1007.4 hPa | 0 mm | - | - | - |
| 1788075603 | 10.56° C | 70% | 1007.3 hPa | 0 mm | - | - | - |
| 1788075003 | 10.56° C | 70% | 1007.5 hPa | 0 mm | - | - | - |
| 1788074403 | 11.11° C | 69% | 1007.6 hPa | 0 mm | - | - | - |
| 1788073804 | 11.11° C | 70% | 1008.1 hPa | 0 mm | - | - | - |
| 1788073204 | 11.11° C | 73% | 1007.7 hPa | 0 mm | - | - | - |
| 1788072605 | 11.11° C | 73% | 1007.7 hPa | 0 mm | - | - | - |
| 1788072009 | 11.11° C | 73% | 1008 hPa | 0 mm | - | - | - |
| 1788071405 | 11.67° C | 73% | 1008.1 hPa | 0 mm | - | - | - |
| 1788070803 | 11.67° C | 73% | 1008.1 hPa | 0 mm | - | - | - |
* Rain latest hour (hover to see other rain measurements)
** Current wind speed in m/s (hover to see current wind gust speed)